Dewpoint
65 63 52 49 42 46 43 45 53 52 50 52 52 50 50 53 52 50 62 66 71 73 74 73 75 75 75 75 74 74 74 74 73 72 72 73 73 74 74 72 71 69 68 67 66 66 67 66 67
52 53 50 41 35 36 39 47 49 48 48 53 53 51 53 51 57 63 64 70 72 73 73 73 75 75 76 75 74 74 74 74 73 72 72 73 73 73 73 72 70 68 66 66 66 66 65 65 66
57 46 41 37 35 31 32 46 46 49 50 48 50 51 51 53 60 61 66 72 73 73 73 73 75 76 76 74 74 74 74 73 73 72 72 72 73 73 73 71 70 67 66 66 65 65 65 65 66
48 38 34 34 31 32 33 31 44 48 48 51 50 51 53 55 59 63 70 72 72 72 73 75 76 76 76 74 74 74 73 73 73 72 72 72 73 73 73 71 70 68 67 67 67 66 65 66 66
35 33 30 30 28 29 29 35 48 46 48 50 51 50 51 60 64 69 70 71 71 71 73 74 76 76 76 74 73 74 74 74 73 72 72 72 72 73 72 71 69 69 68 68 67 67 68 69 68
27 29 25 24 26 27 26 33 47 46 48 53 50 51 52 64 66 68 69 70 71 72 73 74 75 76 76 75 74 74 75 74 74 73 73 72 72 72 72 71 70 69 69 69 68 70 70 70 70
26 25 24 25 24 23 24 38 45 46 50 52 52 51 54 61 63 66 67 68 70 72 73 74 74 74 75 75 75 75 74 74 74 74 74 73 72 71 72 71 70 70 71 71 71 71 71 71 70
26 22 24 19 22 20 23 25 40 52 51 53 51 48 49 57 61 62 66 68 69 71 72 72 73 73 73 73 75 74 74 74 74 73 73 73 72 71 71 73 72 70 71 71 71 72 72 71 70
19 16 16 17 19 19 20 19 44 48 49 51 53 52 53 58 59 59 66 67 69 69 70 71 71 71 72 72 72 74 73 73 73 73 73 73 71 70 70 71 71 71 71 72 72 73 72 71 70
14 14 16 17 19 17 18 17 33 43 46 50 52 52 55 58 57 61 64 64 66 66 69 70 70 71 71 70 71 72 71 71 72 72 71 71 69 69 69 70 71 71 72 73 73 73 72 70 66
13 10 12 11 15 17 16 15 18 42 43 50 49 49 54 57 57 61 62 62 64 64 67 69 70 70 70 68 70 71 71 71 71 71 70 70 69 68 69 68 68 69 71 71 71 69 66 64 63
24 8 9 8 8 14 15 12 15 41 38 46 51 49 53 57 57 60 61 61 62 63 64 67 68 69 69 67 69 70 70 71 71 71 70 69 68 67 66 66 66 67 68 69 68 65 63 61 57
4 7 7 6 7 7 7 6 8 18 19 50 52 51 51 55 60 60 61 61 62 62 62 64 67 67 67 66 68 68 69 69 70 70 70 69 67 67 66 66 67 67 67 66 65 64 59 56 57
9 8 8 9 10 8 6 6 8 9 41 51 52 52 53 53 53 60 61 60 61 62 62 62 64 65 65 65 66 67 67 68 68 68 68 68 67 66 65 65 65 66 65 63 61 58 57 57 57
10 7 10 10 13 10 9 10 8 12 40 43 52 51 54 53 53 52 57 61 62 62 62 61 62 63 63 63 65 67 67 66 67 67 68 68 67 66 64 64 63 63 61 59 57 57 58 57 56
10 10 6 8 10 10 11 9 12 17 35 40 46 50 51 52 52 51 50 57 62 62 61 62 61 62 63 62 64 66 66 66 66 67 67 67 67 66 64 64 62 62 61 59 57 57 57 56 55
9 5 8 9 10 12 12 9 12 12 20 28 43 44 49 51 52 52 51 49 54 61 61 61 61 61 62 63 64 65 65 65 65 65 66 67 66 65 64 63 63 62 61 59 58 57 57 56 54
5 6 7 8 9 15 11 10 13 12 16 21 27 44 46 51 51 52 52 49 49 52 59 60 60 61 61 63 64 65 64 64 63 63 64 66 65 65 64 64 62 62 61 59 58 57 56 55 53
12 12 10 11 12 14 12 13 14 15 15 15 16 30 43 49 52 52 52 51 50 51 55 59 59 60 61 63 64 64 63 63 64 64 64 65 65 65 64 62 62 61 60 58 58 57 54 53 49
16 15 12 13 16 16 15 14 15 16 16 16 17 18 29 46 51 52 51 54 52 51 55 59 59 61 61 62 63 63 63 64 64 65 66 65 65 65 65 63 62 61 60 56 52 52 50 48 47
17 12 12 12 17 17 16 12 15 16 17 18 19 21 23 23 38 50 50 53 53 52 54 58 60 62 64 64 66 65 65 64 63 63 64 64 65 66 65 64 62 61 58 52 50 49 47 45 47
16 16 17 16 14 11 16 10 16 16 19 19 24 36 23 22 36 49 49 51 53 53 56 57 61 64 64 66 65 65 64 63 63 64 65 65 65 65 64 62 61 57 53 51 50 49 48 48 46
14 21 20 20 15 13 13 15 16 21 26 27 24 44 51 32 35 45 48 49 55 60 59 61 64 65 66 65 65 66 64 63 63 64 64 64 64 64 64 62 59 53 51 48 48 49 49 47 46
19 21 19 21 16 12 13 16 18 21 26 30 33 35 39 52 58 53 54 61 63 65 65 67 67 67 67 66 66 65 65 63 63 63 63 62 61 62 61 59 55 51 50 50 50 49 47 48 46
16 17 16 15 17 14 19 19 19 24 31 32 35 37 41 53 60 61 59 59 62 65 66 67 68 68 69 68 68 67 66 65 64 64 63 61 60 59 57 53 50 49 49 50 49 48 47 46 46
18 16 18 10 14 12 19 16 23 29 33 35 31 36 40 46 57 60 62 61 63 65 66 67 68 68 68 67 66 66 65 64 65 64 62 62 62 60 56 51 50 51 50 49 48 48 48 47 47
17 15 19 16 19 14 14 21 25 29 32 35 32 33 34 43 55 59 60 62 63 66 67 67 67 67 67 67 66 65 64 64 64 63 63 63 62 61 52 51 49 49 49 49 49 48 48 47 47
24 18 12 16 14 10 16 20 22 27 28 35 35 33 34 38 52 57 59 61 64 66 66 66 66 66 65 65 64 64 64 62 60 59 60 60 59 57 51 50 49 49 49 49 48 47 47 47 48
25 24 23 18 22 14 14 16 28 30 31 33 35 35 36 40 40 50 60 61 62 64 66 65 65 65 64 64 61 61 59 57 59 58 58 56 54 51 49 49 48 48 48 49 48 48 48 48 47
26 27 26 25 23 25 21 20 27 34 34 35 36 47 49 54 55 54 59 60 61 63 64 64 64 64 63 61 59 58 57 57 57 57 56 55 52 50 49 50 50 50 49 49 48 48 48 48 47
Lifted_Index
3 2 2 1 1 0 -0 -0 -0 -1 -2 -2 -3 -3 -3 -3 -3 -2 -1 -2 -4 -4 -4 -4 -4 -4 -4 -4 -4 -4 -4 -4 -4 -3 -3 -3 -4 -4 -4 -3 -2 -0 0 1 1 0 0 0 -0
4 3 2 1 1 1 0 0 -0 -1 -2 -2 -3 -3 -3 -3 -2 -2 -2 -3 -4 -4 -4 -4 -4 -5 -4 -4 -4 -4 -4 -4 -4 -3 -3 -3 -4 -4 -4 -3 -1 -0 0 0 0 0 0 0 -0
4 3 2 1 1 1 1 0 -0 -1 -2 -3 -3 -3 -3 -3 -2 -2 -3 -4 -5 -5 -4 -4 -5 -5 -5 -4 -4 -4 -4 -4 -4 -3 -3 -3 -4 -4 -3 -2 -1 -0 0 0 -0 0 0 0 -0
4 3 2 1 1 1 1 0 -1 -1 -2 -3 -3 -3 -3 -3 -3 -3 -4 -5 -5 -5 -5 -5 -5 -6 -5 -5 -4 -4 -4 -4 -4 -3 -3 -3 -3 -4 -3 -2 -1 -1 -1 -1 -1 -0 0 -0 -0
4 3 2 1 1 1 1 0 -1 -2 -3 -3 -4 -4 -3 -3 -3 -4 -4 -5 -4 -4 -5 -5 -6 -6 -6 -5 -5 -5 -4 -4 -4 -3 -3 -3 -3 -3 -3 -2 -2 -1 -1 -1 -1 -1 -1 -1 -1
5 4 2 1 1 1 1 1 -0 -2 -3 -4 -4 -3 -3 -3 -4 -4 -4 -4 -4 -4 -5 -6 -6 -6 -6 -5 -5 -5 -5 -4 -4 -4 -3 -3 -3 -3 -3 -3 -2 -2 -2 -2 -2 -2 -2 -2 -2
6 4 2 1 0 1 1 1 -0 -2 -4 -4 -4 -3 -3 -3 -3 -4 -4 -4 -3 -4 -5 -5 -5 -6 -6 -5 -5 -5 -5 -4 -4 -4 -4 -3 -3 -3 -3 -3 -3 -2 -2 -2 -3 -3 -3 -3 -3
7 5 2 1 1 1 1 1 -0 -2 -4 -4 -4 -3 -3 -3 -3 -3 -4 -4 -3 -3 -4 -4 -5 -5 -5 -5 -5 -5 -4 -4 -4 -4 -4 -4 -3 -3 -3 -3 -3 -3 -3 -4 -4 -4 -4 -3 -3
7 5 3 2 1 1 1 1 0 -2 -4 -4 -5 -4 -3 -3 -3 -4 -4 -4 -3 -3 -3 -3 -4 -4 -4 -4 -4 -4 -4 -4 -4 -4 -4 -4 -4 -3 -3 -3 -4 -4 -4 -5 -5 -5 -5 -4 -3
7 5 3 3 3 2 2 2 1 -1 -3 -5 -5 -4 -3 -3 -4 -4 -4 -4 -3 -2 -3 -3 -3 -3 -4 -4 -4 -4 -4 -4 -5 -5 -4 -4 -3 -3 -3 -3 -4 -4 -5 -5 -6 -6 -5 -3 -2
6 5 4 4 4 3 2 2 2 0 -2 -4 -4 -3 -3 -3 -4 -4 -4 -4 -3 -3 -3 -3 -3 -3 -3 -3 -3 -4 -4 -4 -4 -4 -4 -4 -3 -3 -3 -3 -3 -4 -5 -5 -6 -5 -4 -2 -2
6 6 5 5 4 4 3 3 2 1 -1 -2 -3 -3 -3 -3 -4 -4 -4 -4 -3 -3 -3 -3 -3 -3 -3 -2 -3 -3 -4 -4 -4 -4 -4 -3 -3 -3 -2 -2 -3 -3 -4 -4 -4 -4 -3 -2 -1
6 6 5 5 5 4 3 2 2 1 0 -2 -3 -3 -3 -3 -3 -4 -4 -4 -4 -3 -3 -3 -3 -3 -2 -2 -3 -3 -3 -4 -4 -4 -4 -3 -3 -3 -3 -3 -3 -3 -3 -4 -3 -3 -2 -2 -1
5 5 4 4 3 3 2 1 1 1 0 -2 -3 -3 -3 -3 -3 -4 -4 -4 -4 -4 -4 -4 -3 -3 -3 -3 -3 -3 -4 -4 -4 -4 -3 -3 -3 -3 -3 -3 -3 -3 -3 -3 -3 -2 -2 -1 -1
5 4 4 3 2 2 2 1 1 2 1 -1 -3 -3 -3 -3 -4 -4 -4 -4 -4 -4 -4 -4 -4 -4 -4 -3 -3 -4 -4 -4 -4 -4 -4 -3 -3 -3 -3 -3 -3 -3 -3 -3 -2 -2 -2 -1 -1
4 4 3 3 3 3 2 1 1 2 1 -0 -2 -3 -3 -4 -4 -4 -4 -4 -4 -4 -5 -5 -4 -4 -4 -4 -4 -4 -4 -4 -4 -4 -4 -4 -4 -4 -4 -4 -3 -3 -2 -2 -2 -2 -2 -2 -2
3 3 3 3 3 4 3 2 1 2 1 0 -1 -2 -3 -4 -4 -4 -3 -3 -4 -4 -4 -4 -4 -4 -4 -4 -4 -4 -5 -5 -5 -5 -5 -5 -5 -5 -4 -4 -3 -3 -3 -3 -3 -2 -2 -2 -1
3 3 3 3 4 4 3 3 2 2 1 1 0 -1 -2 -3 -4 -4 -3 -3 -3 -3 -4 -4 -4 -4 -4 -4 -4 -5 -5 -5 -5 -5 -5 -5 -5 -5 -5 -4 -3 -3 -3 -3 -3 -3 -2 -1 -0
4 4 4 4 4 4 4 3 3 2 1 1 1 0 -1 -2 -3 -4 -4 -3 -3 -3 -3 -3 -4 -4 -4 -4 -4 -5 -5 -5 -5 -4 -4 -4 -5 -5 -4 -3 -3 -3 -3 -3 -3 -3 -2 0 1
5 5 4 4 4 4 3 3 2 2 1 1 1 1 0 -1 -2 -3 -4 -4 -3 -3 -2 -3 -3 -4 -4 -4 -4 -5 -5 -5 -4 -4 -4 -4 -4 -4 -4 -3 -2 -3 -3 -3 -3 -2 -0 2 4
4 4 4 4 4 3 3 2 2 1 1 1 1 0 0 0 -0 -1 -3 -4 -3 -3 -3 -2 -3 -3 -4 -4 -4 -4 -4 -4 -4 -4 -4 -4 -4 -4 -3 -3 -2 -2 -3 -2 -1 0 2 4 6
4 4 4 4 4 3 2 2 2 2 1 1 0 -0 -0 0 1 0 -1 -3 -3 -3 -3 -3 -3 -3 -3 -4 -4 -4 -4 -4 -4 -4 -4 -5 -4 -4 -3 -3 -2 -3 -2 -1 1 3 4 6 7
4 4 4 4 3 3 2 2 2 2 1 1 -1 -1 -1 -1 -0 -0 -1 -2 -3 -4 -3 -3 -3 -4 -4 -4 -4 -4 -4 -4 -4 -5 -5 -5 -5 -4 -3 -3 -2 -2 -1 0 2 4 6 7 8
4 3 3 3 2 2 2 2 2 2 2 1 -0 -1 -1 -2 -2 -2 -2 -2 -3 -4 -4 -4 -5 -5 -5 -5 -5 -5 -5 -5 -5 -6 -6 -5 -5 -4 -4 -3 -2 -1 0 2 3 5 7 8 9
3 3 2 2 1 1 1 2 2 2 2 1 1 0 -0 -2 -4 -4 -4 -3 -4 -4 -5 -5 -6 -7 -7 -7 -6 -6 -6 -6 -6 -7 -7 -6 -5 -4 -4 -3 -2 -0 1 3 4 6 8 9 9
3 3 2 1 1 1 1 1 2 2 2 2 1 1 0 -1 -4 -5 -5 -5 -5 -5 -6 -6 -7 -8 -9 -8 -8 -8 -7 -7 -7 -7 -7 -6 -5 -4 -4 -3 -1 1 2 3 5 7 8 8 9
3 3 2 2 1 1 1 1 1 1 2 1 1 1 1 -0 -3 -5 -6 -6 -6 -6 -7 -7 -8 -9 -9 -9 -9 -8 -8 -7 -7 -6 -6 -5 -5 -4 -4 -2 -0 1 3 5 6 7 8 8 8
2 2 2 2 1 1 1 1 1 1 2 2 1 1 1 -0 -2 -5 -7 -7 -7 -7 -8 -8 -9 -9 -9 -9 -8 -7 -7 -7 -6 -5 -5 -5 -4 -4 -3 -1 1 3 4 6 7 7 7 7 7
2 2 2 2 2 1 1 1 2 2 2 2 2 1 0 -1 -2 -3 -5 -7 -7 -8 -8 -9 -9 -9 -9 -8 -7 -7 -6 -6 -6 -5 -4 -4 -3 -2 -0 1 3 4 5 6 7 7 7 7 8
2 2 3 2 2 2 1 2 2 2 2 3 2 0 -1 -1 -2 -3 -4 -6 -7 -8 -9 -9 -9 -9 -8 -7 -7 -6 -6 -6 -5 -5 -4 -3 -3 -1 1 3 4 5 6 6 7 7 8 8 8